Simultaneous Nadir Overpasses (SNOs) Predictions

Prediction of SNOs between METOP-B and TERRA Satellite Orbit:

Table of predicted SNOs for the next 14.0 days since TLE Epoch: 3/10/2018
Index Date (METOP-B) Time (METOP-B) Lat,Lon (METOP-B) SZA (METOP-B ) Date (TERRA) Time (TERRA) Lat,Lon (TERRA) SZA (TERRA ) Distance(km) Time Diff (sec)
1 03/12/2018 10:41:19 81.33, 67.39 87.11 03/12/2018 10:41:58 81.33, 67.45 87.13 1.00 39
2 03/12/2018 11:31:59 -81.33,-125.12 92.89 03/12/2018 11:31:25 -81.33,-124.93 92.89 3.23 34
3 03/15/2018 06:15:40 81.33, 134.04 86.05 03/15/2018 06:16:13 81.34, 134.04 86.07 0.66 33
4 03/15/2018 07:06:20 -81.34, -58.45 93.95 03/15/2018 07:05:40 -81.34, -58.32 93.95 2.37 40
5 03/18/2018 01:50:02 81.33,-159.72 84.95 03/18/2018 01:50:29 81.32,-159.84 84.94 2.23 27
6 03/18/2018 02:40:41 -81.34, 8.20 95.00 03/18/2018 02:39:55 -81.34, 8.20 95.02 0.62 46
7 03/20/2018 21:24:22 81.33, -93.09 83.89 03/20/2018 21:24:42 81.34, -93.05 83.91 1.08 20
8 03/20/2018 22:15:02 -81.34, 74.46 96.10 03/20/2018 22:14:09 -81.34, 74.62 96.11 2.82 53
9 03/23/2018 16:58:44 81.33, -26.87 82.79 03/23/2018 16:58:57 81.33, -26.73 82.81 2.33 13




NCC Satellite Simultaneous Nadir Overpasses (SNOs) Prediction Service
